ACA241 BGSF-CYDF

Flight info

Callsign ACA241
Flight time N/A
Altitude 34000
Route M079F340 BAVKO1B BAVKO DCT MS DCT ENNSO/N0458F340 DCT HOIST DCT IRLOK DCT JANJO DCT YAY V381 YDF DCT
Aircraft A320/M-SDE3FGHIRWY/LB1

Departure

Time 2026-04-19 21:50
Airport Kangerlussuaq International Airport (BGSF)

Arrival

Time N/A
Airport Deer Lake Airport (CYDF)
Time Latitude Longitude Altitude Speed Heading
2026-04-19 21:48 67.01749 -50.68685 168 ft 0 kts 244°
2026-04-19 21:49 67.01647 -50.69167 168 ft 69 kts 240°
2026-04-19 21:49 67.01311 -50.70754 162 ft 131 kts 242°
2026-04-19 21:49 67.00812 -50.73187 270 ft 167 kts 239°
2026-04-19 21:50 67.00306 -50.75850 964 ft 167 kts 243°
2026-04-19 21:50 66.99732 -50.78407 1733 ft 166 kts 234°
2026-04-19 21:50 66.99071 -50.80828 2326 ft 168 kts 228°
2026-04-19 21:50 66.98358 -50.83317 2674 ft 179 kts 227°
2026-04-19 21:51 66.97606 -50.86031 2940 ft 196 kts 230°
2026-04-19 21:51 66.96748 -50.88955 3172 ft 216 kts 224°
2026-04-19 21:51 66.95707 -50.91816 3739 ft 221 kts 219°
2026-04-19 21:51 66.94648 -50.94578 4485 ft 225 kts 218°
2026-04-19 21:52 66.93522 -50.97493 5198 ft 230 kts 218°
2026-04-19 21:52 66.92409 -51.00388 5980 ft 233 kts 218°
2026-04-19 21:52 66.91273 -51.03366 6708 ft 236 kts 219°
2026-04-19 21:52 66.90110 -51.06439 7446 ft 240 kts 219°
2026-04-19 21:53 66.88959 -51.09499 8167 ft 244 kts 219°
2026-04-19 21:53 66.87776 -51.12649 8881 ft 248 kts 219°
2026-04-19 21:53 66.86574 -51.15841 9590 ft 252 kts 219°
2026-04-19 21:53 66.85332 -51.19134 9980 ft 268 kts 220°
2026-04-19 21:54 66.83982 -51.22694 10162 ft 290 kts 220°
2026-04-19 21:54 66.82539 -51.26501 10386 ft 306 kts 221°
2026-04-19 21:54 66.81049 -51.30457 10844 ft 314 kts 221°
2026-04-19 21:54 66.79528 -51.34495 11418 ft 319 kts 221°
2026-04-19 21:55 66.77984 -51.38594 11997 ft 323 kts 222°
2026-04-19 21:55 66.76421 -51.42726 12579 ft 328 kts 222°
2026-04-19 21:55 66.74832 -51.46924 13155 ft 333 kts 223°
2026-04-19 21:55 66.73215 -51.51185 13708 ft 338 kts 223°
2026-04-19 21:56 66.71462 -51.55139 14244 ft 339 kts 213°
2026-04-19 21:56 66.69417 -51.58091 14757 ft 340 kts 203°
2026-04-19 21:56 66.67233 -51.60469 15293 ft 343 kts 202°
2026-04-19 21:56 66.65026 -51.62869 15827 ft 347 kts 203°
2026-04-19 21:57 66.62800 -51.65295 16330 ft 350 kts 203°
2026-04-19 21:57 66.60548 -51.67755 16874 ft 354 kts 203°
2026-04-19 21:57 66.58278 -51.70230 17396 ft 358 kts 204°
2026-04-19 21:57 66.55985 -51.72737 17919 ft 361 kts 204°
2026-04-19 21:58 66.53669 -51.75263 18383 ft 364 kts 204°
2026-04-19 21:58 66.51337 -51.77792 18903 ft 366 kts 204°
2026-04-19 21:58 66.48987 -51.80322 19433 ft 368 kts 204°
2026-04-19 21:58 66.46662 -51.82815 19937 ft 369 kts 204°
2026-04-19 21:59 66.44297 -51.85358 20445 ft 371 kts 204°
2026-04-19 21:59 66.41927 -51.87930 20942 ft 372 kts 205°
2026-04-19 21:59 66.39547 -51.90517 21420 ft 374 kts 205°
2026-04-19 21:59 66.37158 -51.93116 21892 ft 376 kts 205°
2026-04-19 22:00 66.34756 -51.95729 22345 ft 377 kts 205°
2026-04-19 22:00 66.32346 -51.98339 22791 ft 379 kts 205°
2026-04-19 22:00 66.29926 -52.00952 23220 ft 380 kts 205°
2026-04-19 22:00 66.27493 -52.03576 23573 ft 382 kts 205°
2026-04-19 22:01 66.25048 -52.06207 23934 ft 383 kts 206°
2026-04-19 22:01 66.22600 -52.08833 24295 ft 384 kts 206°
2026-04-19 22:01 66.20139 -52.11465 24615 ft 386 kts 206°
2026-04-19 22:01 66.17672 -52.14109 24936 ft 388 kts 206°
2026-04-19 22:02 66.15192 -52.16755 25251 ft 389 kts 206°
2026-04-19 22:02 66.12699 -52.19399 25558 ft 391 kts 206°
2026-04-19 22:02 66.10194 -52.22048 25857 ft 393 kts 207°
2026-04-19 22:02 66.07676 -52.24706 26161 ft 395 kts 207°
2026-04-19 22:03 66.05142 -52.27379 26469 ft 396 kts 207°
2026-04-19 22:03 66.02602 -52.30060 26763 ft 398 kts 207°
2026-04-19 22:03 66.00051 -52.32743 27064 ft 400 kts 207°
2026-04-19 22:03 65.97482 -52.35429 27349 ft 402 kts 207°
2026-04-19 22:04 65.94908 -52.38113 27651 ft 402 kts 207°
2026-04-19 22:04 65.92340 -52.40791 28025 ft 401 kts 208°
2026-04-19 22:04 65.89804 -52.43435 28343 ft 401 kts 208°
2026-04-19 22:04 65.87233 -52.46101 28592 ft 402 kts 208°
2026-04-19 22:05 65.84654 -52.48770 28768 ft 403 kts 208°
2026-04-19 22:05 65.82073 -52.51443 28998 ft 403 kts 208°
2026-04-19 22:05 65.79482 -52.54127 29221 ft 405 kts 208°
2026-04-19 22:05 65.76885 -52.56809 29438 ft 406 kts 208°
2026-04-19 22:06 65.74283 -52.59486 29689 ft 406 kts 209°
2026-04-19 22:06 65.71681 -52.62148 29946 ft 404 kts 209°
2026-04-19 22:06 65.69090 -52.64791 30207 ft 403 kts 209°
2026-04-19 22:06 65.66507 -52.67425 30423 ft 403 kts 209°
2026-04-19 22:07 65.63929 -52.70046 30695 ft 401 kts 209°
2026-04-19 22:07 65.61365 -52.72646 31044 ft 398 kts 210°
2026-04-19 22:07 65.58824 -52.75228 31368 ft 395 kts 210°
2026-04-19 22:07 65.56293 -52.77791 31652 ft 394 kts 210°
2026-04-19 22:08 65.53765 -52.80349 31894 ft 393 kts 210°
2026-04-19 22:08 65.51245 -52.82897 32137 ft 393 kts 210°
2026-04-19 22:08 65.48729 -52.85441 32372 ft 392 kts 210°
2026-04-19 22:08 65.46216 -52.87971 32598 ft 391 kts 209°
2026-04-19 22:09 65.43705 -52.90487 32824 ft 391 kts 209°
2026-04-19 22:09 65.41166 -52.92882 33066 ft 394 kts 205°
2026-04-19 22:09 65.38489 -52.94524 33282 ft 399 kts 201°
2026-04-19 22:09 65.35786 -52.96022 33507 ft 398 kts 201°
2026-04-19 22:10 65.33097 -52.97527 33663 ft 398 kts 201°
2026-04-19 22:10 65.27729 -53.00546 33708 ft 395 kts 201°
2026-04-19 22:11 65.22384 -53.03549 33718 ft 395 kts 201°
2026-04-19 22:11 65.17037 -53.06542 33704 ft 395 kts 201°
2026-04-19 22:12 65.11692 -53.09524 33716 ft 395 kts 201°
2026-04-19 22:12 65.06384 -53.12467 33715 ft 395 kts 201°
2026-04-19 22:13 65.01033 -53.15408 33714 ft 394 kts 201°
2026-04-19 22:13 64.95691 -53.18336 33717 ft 394 kts 202°
2026-04-19 22:14 64.90331 -53.21256 33693 ft 396 kts 202°
2026-04-19 22:14 64.84959 -53.24186 33694 ft 397 kts 202°
2026-04-19 22:15 64.79573 -53.27097 33696 ft 397 kts 202°
2026-04-19 22:15 64.74194 -53.29984 33700 ft 396 kts 202°
2026-04-19 22:16 64.68813 -53.32886 33707 ft 397 kts 202°
2026-04-19 22:16 64.63435 -53.35774 33719 ft 396 kts 203°
2026-04-19 22:17 64.58071 -53.38642 33735 ft 394 kts 203°
2026-04-19 22:17 64.52766 -53.41452 33738 ft 393 kts 203°
2026-04-19 22:18 64.47401 -53.44278 33735 ft 392 kts 203°
2026-04-19 22:18 64.42122 -53.47060 33733 ft 391 kts 203°
2026-04-19 22:19 64.36813 -53.49859 33732 ft 392 kts 203°
2026-04-19 22:19 64.31496 -53.52626 33725 ft 391 kts 203°
2026-04-19 22:20 64.26196 -53.55367 33734 ft 390 kts 204°